AV279 Weather Reports


time (UTC)temp
F
wind
direction
speed
knots
gust
knots
rain 1hr
in
rain 24hr
in
rain mn
in
humidity
%
barometer
mb
20260506154519 57 113 2.6 7.0 0.00 0.00 0.00 73 1010.6
20260506153551 57 0 7.8 10.4 0.00 0.00 0.00 72 1010.6
20260506152529 57 0 6.1 9.6 0.00 0.00 0.00 71 1010.7
20260506151529 58 45 3.5 7.0 0.00 0.00 0.00 72 1010.6
20260506150518 58 0 4.3 10.4 0.00 0.00 0.00 72 1010.6
20260506145620 57 338 6.1 12.2 0.00 0.00 0.00 71 1010.6
20260506144530 57 0 3.5 7.8 0.00 0.00 0.00 71 1010.6
20260506143530 57 45 3.5 6.1 0.00 0.00 0.00 71 1010.6
20260506142559 57 23 9.6 13.9 0.00 0.00 0.00 70 1010.6
20260506141539 57 315 4.3 7.8 0.00 0.00 0.00 69 1010.6
20260506140529 57 23 5.2 9.6 0.00 0.00 0.00 68 1010.6
20260506135551 57 23 7.0 12.2 0.00 0.00 0.00 69 1010.6
20260506134551 57 0 5.2 9.6 0.00 0.00 0.00 70 1010.5
20260506133518 58 23 6.1 10.4 0.00 0.00 0.00 68 1010.4
20260506132519 59 338 6.1 13.9 0.00 0.00 0.00 66 1010.6
20260506131519 60 0 7.8 11.3 0.00 0.00 0.00 63 1010.5
20260506130519 60 0 4.3 9.6 0.00 0.00 0.00 64 1010.5
20260506125529 59 23 6.1 10.4 0.00 0.00 0.00 64 1010.5
20260506124539 59 0 4.3 9.6 0.00 0.00 0.00 67 1010.3
20260506123518 58 0 6.1 8.7 0.00 0.00 0.00 68 1010.3
20260506122518 59 0 7.8 13.9 0.00 0.00 0.00 67 1010.3
20260506121529 60 0 7.0 10.4 0.00 0.00 0.00 67 1010.1
20260506120529 58 45 5.2 8.7 0.00 0.00 0.00 69 1010.1
20260506115519 58 0 4.3 10.4 0.00 0.00 0.00 68 1010.1
20260506114529 59 45 7.0 14.8 0.00 0.00 0.00 65 1010.2
20260506113529 59 45 4.3 7.0 0.00 0.00 0.00 66 1010.2
20260506112539 59 23 8.7 12.2 0.00 0.00 0.00 65 1010.1
20260506111529 60 0 6.1 10.4 0.00 0.00 0.00 65 1010.1
20260506110538 58 23 5.2 12.2 0.00 0.00 0.00 66 1010.1
20260506105529 59 0 7.8 11.3 0.00 0.00 0.00 67 1010.1
20260506104540 59 0 6.1 13.9 0.00 0.00 0.00 66 1010.0
20260506103539 60 0 6.1 9.6 0.00 0.00 0.00 67 1010.1
20260506102518 59 0 5.2 8.7 0.00 0.00 0.00 65 1010.0
20260506101518 58 23 4.3 8.7 0.00 0.00 0.00 67 1010.2
20260506100519 59 45 5.2 11.3 0.00 0.00 0.00 67 1010.0
20260506095529 59 23 6.1 8.7 0.00 0.00 0.00 67 1009.8
20260506094519 58 0 7.0 12.2 0.00 0.00 0.00 68 1009.8
20260506093518 58 23 5.2 9.6 0.00 0.00 0.00 69 1009.8
20260506092549 57 0 6.1 13.0 0.00 0.00 0.00 67 1009.8
20260506091521 58 0 4.3 8.7 0.00 0.00 0.00 67 1009.9
20260506090520 57 23 6.1 12.2 0.00 0.00 0.00 69 1009.9
20260506085601 56 23 6.1 10.4 0.00 0.00 0.00 69 1009.9
20260506084518 57 23 6.1 10.4 0.00 0.00 0.00 68 1009.8
20260506083518 56 45 4.3 8.7 0.00 0.00 0.00 68 1009.7
20260506082531 56 0 4.3 7.0 0.00 0.00 0.00 70 1009.7
20260506081531 56 90 2.6 9.6 0.00 0.00 0.00 70 1009.5
20260506080518 56 23 8.7 13.9 0.00 0.00 0.00 69 1009.5
20260506072520 54 23 3.5 6.1 0.00 0.00 0.00 75 1009.3
20260506071531 53 23 7.8 13.0 0.00 0.00 0.00 76 1009.5
20260506070600 53 23 5.2 10.4 0.00 0.00 0.00 76 1009.4
20260506061520 52 338 1.7 5.2 0.00 0.00 0.00 79 1009.2
20260506060503 52 45 3.5 5.2 0.00 0.00 0.00 79 1009.3
20260506050718 52 0 5.2 7.0 0.00 0.00 0.00 79 1009.2
20260506044330 51 23 2.6 4.3 0.00 0.00 0.00 79 1009.3
20260506043339 51 45 2.6 7.0 0.00 0.00 0.00 79 1009.2
20260506042319 51 23 2.6 6.1 0.00 0.00 0.00 80 1009.2
20260506041340 51 23 5.2 8.7 0.00 0.00 0.00 79 1009.3
20260506040352 51 0 5.2 8.7 0.00 0.00 0.00 79 1009.3
20260506035340 51 315 4.3 9.6 0.00 0.00 0.00 80 1009.3
20260506034330 51 0 5.2 7.8 0.00 0.00 0.00 80 1009.4
20260506033320 51 0 4.3 9.6 0.00 0.00 0.00 80 1009.2
20260506032350 51 0 3.5 7.8 0.00 0.00 0.00 80 1009.3
20260506031320 51 23 6.1 13.0 0.00 0.00 0.00 79 1009.3
20260506030352 51 23 4.3 7.0 0.00 0.00 0.00 80 1009.3
20260506025330 51 23 3.5 5.2 0.00 0.00 0.00 80 1009.2
20260506024341 51 23 2.6 7.8 0.00 0.00 0.00 80 1009.1
20260506023330 51 45 3.5 8.7 0.00 0.00 0.00 79 1009.2
20260506022319 51 23 7.0 10.4 0.00 0.00 0.00 79 1009.3
20260506021319 51 45 4.3 7.8 0.00 0.00 0.00 80 1009.3
20260506020330 51 338 5.2 7.8 0.00 0.00 0.00 80 1009.3
20260506015330 51 0 7.0 12.2 0.00 0.00 0.00 80 1009.3
20260506014320 50 338 4.3 8.7 0.00 0.00 0.00 81 1009.4
20260506013319 50 23 5.2 8.7 0.00 0.00 0.00 81 1009.5
20260506012320 50 23 5.2 7.8 0.00 0.00 0.00 81 1009.4
20260506011350 50 23 5.2 7.0 0.00 0.00 0.00 81 1009.4
20260506010319 50 0 4.3 7.8 0.00 0.00 0.00 80 1009.5
20260506005339 50 23 3.5 7.0 0.00 0.00 0.00 80 1009.6
20260506004319 50 23 7.0 11.3 0.00 0.00 0.00 81 1009.7
20260506003330 50 23 2.6 4.3 0.00 0.00 0.00 81 1009.8
20260506002319 50 68 2.6 7.0 0.00 0.00 0.00 80 1009.8
20260506001319 51 23 4.3 8.7 0.00 0.00 0.00 80 1009.8
20260506000330 51 338 3.5 7.0 0.00 0.00 0.00 79 1009.8
20260505235320 51 23 6.1 10.4 0.00 0.00 0.00 79 1009.8
20260505234320 51 0 6.1 9.6 0.00 0.00 0.00 78 1009.7
20260505233322 52 0 3.5 7.0 0.00 0.00 0.00 77 1009.8
20260505232350 52 0 3.5 8.7 0.00 0.00 0.00 78 1009.9
20260505231330 52 23 6.1 10.4 0.00 0.00 0.00 78 1009.8
20260505230330 52 23 6.1 9.6 0.00 0.00 0.00 78 1009.9
20260505225320 52 0 4.3 8.7 0.00 0.00 0.00 78 1009.9
20260505224352 52 45 3.5 7.8 0.00 0.00 0.00 78 1009.9
20260505223319 52 0 4.3 9.6 0.00 0.00 0.00 78 1010.0
20260505222320 52 45 4.3 7.8 0.00 0.00 0.00 78 1009.9
20260505221350 52 23 3.5 9.6 0.00 0.00 0.00 78 1010.0
20260505220323 52 23 7.8 11.3 0.00 0.00 0.00 78 1010.1
20260505215533 52 23 3.5 7.0 0.00 0.00 0.00 78 1010.1
20260505214330 52 0 6.1 10.4 0.00 0.00 0.00 78 1010.2
20260505213319 52 23 3.5 5.2 0.00 0.00 0.00 77 1010.2
20260505212319 52 23 3.5 4.3 0.00 0.00 0.00 77 1010.2
20260505211401 52 45 4.3 8.7 0.00 0.00 0.00 77 1010.2
20260505210319 52 68 3.5 7.0 0.00 0.00 0.00 78 1010.1
20260505205330 52 23 7.0 10.4 0.00 0.00 0.00 78 1010.0
20260505204330 53 338 4.3 11.3 0.00 0.00 0.00 78 1010.1
20260505203330 52 0 7.0 12.2 0.00 0.00 0.00 78 1010.1
20260505202319 52 68 2.6 4.3 0.00 0.00 0.00 79 1010.1
20260505201330 52 45 3.5 7.8 0.00 0.00 0.00 78 1010.1
20260505200319 52 23 6.1 8.7 0.00 0.00 0.00 79 1010.0
20260505195320 52 23 8.7 12.2 0.00 0.00 0.00 78 1009.8
20260505194319 53 23 5.2 9.6 0.00 0.00 0.00 78 1009.7
20260505193319 53 315 2.6 5.2 0.00 0.00 0.00 77 1009.7
20260505192319 53 45 5.2 9.6 0.00 0.00 0.00 77 1009.6
20260505191330 53 0 5.2 9.6 0.00 0.00 0.00 76 1009.6
20260505190524 53 23 4.3 7.8 0.00 0.00 0.00 76 1009.5
20260505190019 53 23 7.8 13.9 0.00 0.00 0.00 76 1009.6
20260505185030 53 23 8.7 12.2 0.00 0.00 0.00 76 1009.5
20260505184019 54 0 5.2 9.6 0.00 0.00 0.00 76 1009.4
20260505183030 54 0 4.3 7.8 0.00 0.00 0.00 76 1009.5
20260505182019 54 0 5.2 9.6 0.00 0.00 0.00 75 1009.6
20260505181019 54 45 7.8 14.8 0.00 0.00 0.00 76 1009.5
20260505180019 54 45 8.7 13.0 0.00 0.00 0.00 76 1009.5
20260505175051 54 23 2.6 8.7 0.00 0.00 0.00 76 1009.5
20260505174019 54 23 5.2 10.4 0.00 0.00 0.00 76 1009.6
20260505173019 55 0 6.1 9.6 0.00 0.00 0.00 76 1009.4
20260505172019 55 23 10.4 16.5 0.00 0.00 0.00 77 1009.3
20260505171051 55 23 3.5 5.2 0.00 0.00 0.00 77 1009.2
20260505170030 55 23 7.0 10.4 0.00 0.00 0.00 77 1009.3
20260505165029 55 23 6.1 11.3 0.00 0.00 0.00 77 1009.3
20260505164019 55 45 5.2 9.6 0.00 0.00 0.00 77 1009.4
20260505163019 55 23 7.0 12.2 0.00 0.00 0.00 77 1009.3
20260505162019 55 45 10.4 14.8 0.00 0.00 0.00 75 1009.2
20260505161030 56 23 5.2 13.0 0.00 0.00 0.00 74 1009.3